This demonstration page uses our WeatherBlox Daily Observations layout. Learn more.

Left ArrowRight Arrow

44.8408, -93.29828

Hourly Observations for September 2, 2020

Temp ( °F °C ) Dew Point ( °F °C ) Humidity (%) Winds ( mph kmh ) Pressure ( in mb ) Visibility ( mi km ) Precip ( " mm )
12:53 am 00:53 Mostly Clear 65 18.3 54 12.2 68 68 WSW 10 17 29.69 1005 10 16 0.00 0.00
1:53 am 01:53 Mostly Clear 63 17.2 54 12.2 73 73 WSW 7 11 29.69 1005 10 16 0.00 0.00
2:53 am 02:53 Mostly Clear 61 16.1 54 12.2 78 78 W 8 13 29.70 1006 10 16 0.00 0.00
3:53 am 03:53 Clear 60 15.6 54 12.2 80 80 W 5 7 29.70 1006 10 16 0.00 0.00
4:53 am 04:53 Clear 58 14.4 53 11.7 84 84 Calm 29.71 1006 10 16 0.00 0.00
5:53 am 05:53 Clear 58 14.4 53 11.7 84 84 SSW 6 9 29.72 1007 10 16 0.00 0.00
6:53 am 06:53 Sunny 57 13.9 53 11.7 87 87 SW 6 9 29.74 1007 10 16 0.00 0.00
7:53 am 07:53 Sunny 59 15 53 11.7 81 81 WSW 3 6 29.76 1008 10 16 0.00 0.00
8:53 am 08:53 Sunny 64 17.8 54 12.2 70 70 WNW 6 9 29.78 1008 10 16 0.00 0.00
9:53 am 09:53 Sunny 67 19.4 52 11.1 59 59 WNW 3 6 29.79 1009 10 16 0.00 0.00
10:53 am 10:53 Sunny 72 22.2 51 10.6 48 48 WNW 6 9 29.80 1009 10 16 0.00 0.00
11:53 am 11:53 Sunny 76 24.4 50 10 40 40 WNW 9 15 29.80 1009 10 16 0.00 0.00
12:53 pm 12:53 Sunny 78 25.6 47 8.3 33 33 NNW 10 17 29.79 1009 10 16 0.00 0.00
1:53 pm 13:53 Sunny 79 26.1 46 7.8 31 31 NW 14 22 29.78 1009 10 16 0.00 0.00
2:53 pm 14:53 Sunny 80 26.7 43 6.1 27 27 W 17 28 29.77 1008 10 16 0.00 0.00
3:53 pm 15:53 Sunny 81 27.2 43 6.1 26 26 W 10 17 29.75 1008 10 16 0.00 0.00
4:53 pm 16:53 Sunny 80 26.7 43 6.1 27 27 W 10 17 29.75 1007 10 16 0.00 0.00
5:53 pm 17:53 Mostly Sunny 80 26.7 44 6.7 28 28 WSW 10 17 29.73 1007 10 16 0.00 0.00
6:53 pm 18:53 Mostly Sunny 78 25.6 47 8.3 33 33 SSW 10 17 29.71 1006 10 16 0.00 0.00
7:53 pm 19:53 Mostly Clear 73 22.8 51 10.6 46 46 SSE 8 13 29.69 1005 10 16 0.00 0.00
8:53 pm 20:53 Partly Cloudy 73 22.8 52 11.1 48 48 S 12 19 29.67 1005 10 16 0.00 0.00
9:53 pm 21:53 Partly Cloudy 72 22.2 52 11.1 50 50 S 16 26 29.65 1004 10 16 0.00 0.00
10:53 pm 22:53 Partly Cloudy 71 21.7 52 11.1 51 51 S 13 20 29.61 1003 10 16 0.00 0.00
11:53 pm 23:53 Partly Cloudy 76 24.4 48 8.9 37 37 S 14 22 29.56 1001 10 16 0.00 0.00

Powered by AerisWeather